Jackson, WY

6:35 AM MST on December 06, 2019 (GMT -0700)
Jackson Hole

Weather History for KJAC - October, 2019

Change the Weather History Date:

Saturday, October 5, 2019

  Actual Average Record
Temperature  
Mean Temperature 36 °F -  
Max Temperature 45 °F 59 °F 75 °F (1980)
Min Temperature 28 °F 26 °F 12 °F (2001)
Degree Days  
Heating Degree Days 29    
Moisture  
Dew Point 25 °F    
Average Humidity 65    
Maximum Humidity 89    
Minimum Humidity 42    
Precipitation  
Precipitation 0.00 in - - ()
Sea Level Pressure  
Sea Level Pressure 30.31 in    
Wind  
Wind Speed 7 mph ()    
Max Wind Speed 21 mph    
Max Gust Speed 26 mph    
Visibility 10.0 miles    
Events Rain , Snow    
Averages and records for this station are not official NWS values.
T = Trace of Precipitation, MM = Missing Value Source: Averaged Metar Reports

Daily Weather History Graph

Daily Weather History Graph

Search for Another Location

Airport or City:

Astronomy

Oct. 05, 2019 Rise Set
Actual Time 7:24 AM MDT 6:57 PM MDT
Civil Twilight 6:56 AM MDT 7:25 PM MDT
Nautical Twilight 6:23 AM MDT 7:58 PM MDT
Astronomical Twilight 5:49 AM MDT 8:32 PM MDT
Moon 3:03 PM MDT (10/5) No Moon Set
Length of Visible Light 12h 29m
Length of Day
11h 32m
Waxing Crescent, 50% of the Moon is Illuminated
Oct 5
Waxing Crescent
Oct 13
Full
Oct 21
Last Quarter
Oct 27
New
Nov 4
First Quarter

Hourly Weather History & Observations

Time (MDT) Temp. Windchill Dew Point Humidity Pressure Visibility Wind Dir Wind Speed Gust Speed Precip Events Conditions
12:56 AM 34.0 °F 26.0 °F 28.0 °F 79% 30.22 in 9.0 mi WSW 10.4 mph - 0.00 in Snow Light Snow
1:56 AM 34.0 °F 26.6 °F 27.0 °F 75% 30.27 in 10.0 mi West 9.2 mph - 0.00 in Rain Light Rain
2:56 AM 34.0 °F 26.0 °F 25.0 °F 70% 30.29 in 10.0 mi WSW 10.4 mph - 0.00 in   Overcast
3:56 AM 32.0 °F 27.5 °F 25.0 °F 75% 30.33 in 10.0 mi West 4.6 mph - N/A   Overcast
4:56 AM 33.1 °F - 25.0 °F 72% 30.32 in 10.0 mi Calm Calm - N/A   Overcast
5:56 AM 32.0 °F 25.6 °F 27.0 °F 82% 30.34 in 10.0 mi SSW 6.9 mph - N/A   Overcast
6:56 AM 28.9 °F - 25.0 °F 85% 30.36 in 10.0 mi Calm Calm - N/A   Mostly Cloudy
7:56 AM 28.9 °F - 26.1 °F 89% 30.37 in 10.0 mi Calm Calm - N/A   Scattered Clouds
8:56 AM 35.1 °F - 28.0 °F 76% 30.36 in 10.0 mi Calm Calm - N/A   Scattered Clouds
9:56 AM 37.0 °F 29.3 °F 28.0 °F 70% 30.35 in 10.0 mi SSW 11.5 mph - N/A   Mostly Cloudy
10:56 AM 39.0 °F 30.6 °F 27.0 °F 62% 30.34 in 10.0 mi South 15.0 mph - N/A   Mostly Cloudy
11:56 AM 39.9 °F 30.8 °F 26.1 °F 58% 30.31 in 10.0 mi South 18.4 mph - N/A   Mostly Cloudy
12:56 PM 41.0 °F 31.6 °F 26.1 °F 55% 30.30 in 10.0 mi South 20.7 mph 26.5 mph N/A   Overcast
1:56 PM 41.0 °F 34.7 °F 24.1 °F 51% 30.29 in 10.0 mi West 10.4 mph 26.5 mph N/A   Overcast
2:56 PM 41.0 °F 34.7 °F 24.1 °F 51% 30.27 in 10.0 mi SSW 10.4 mph - N/A   Overcast
3:56 PM 41.0 °F 35.2 °F 24.1 °F 51% 30.27 in 10.0 mi WSW 9.2 mph 16.1 mph N/A   Overcast
4:56 PM 44.1 °F 38.6 °F 21.9 °F 42% 30.25 in 10.0 mi West 10.4 mph - N/A   Mostly Cloudy
5:56 PM 39.9 °F 32.5 °F 21.0 °F 47% 30.28 in 10.0 mi West 12.7 mph 24.2 mph N/A   Mostly Cloudy
6:56 PM 37.0 °F 30.4 °F 21.9 °F 54% 30.32 in 10.0 mi WSW 9.2 mph - 0.00 in Rain Light Rain
7:56 PM 35.1 °F - 26.1 °F 70% 30.34 in 10.0 mi Calm Calm - 0.00 in   Overcast
8:56 PM 37.0 °F 29.3 °F 24.1 °F 59% 30.31 in 10.0 mi South 11.5 mph - N/A   Overcast
9:56 PM 36.0 °F 30.3 °F 25.0 °F 64% 30.32 in 10.0 mi SW 6.9 mph - N/A   Overcast
10:56 PM 37.0 °F 34.5 °F 25.0 °F 62% 30.33 in 10.0 mi South 3.5 mph - N/A   Overcast
11:56 PM 35.1 °F 25.9 °F 25.0 °F 67% 30.34 in 10.0 mi ESE 13.8 mph - N/A   Mostly Cloudy